Eagle, CO

8:20 AM MDT on June 28, 2017 (GMT -0600)
Eagle County Regional

Weather History for KEGE - October, 2013

Change the Weather History Date:

Thursday, October 24, 2013

  Actual Average Record
Temperature  
Mean Temperature 45 °F -  
Max Temperature 66 °F 58 °F 74 °F (1992)
Min Temperature 24 °F 24 °F 9 °F (1975)
Degree Days  
Heating Degree Days 20    
Moisture  
Dew Point 24 °F    
Average Humidity 62    
Maximum Humidity 93    
Minimum Humidity 18    
Precipitation  
Precipitation 0.00 in - - ()
Sea Level Pressure  
Sea Level Pressure 30.29 in    
Wind  
Wind Speed 2 mph (ESE)    
Max Wind Speed 9 mph    
Max Gust Speed -    
Visibility 10 miles    
Events      
Averages and records for this station are not official NWS values.
T = Trace of Precipitation, MM = Missing Value Source: NWS Daily Summary

Daily Weather History Graph

Daily Weather History Graph

Search for Another Location

Airport or City:

Trip Planner

Search our weather history database for the weather conditions in past years. The results will help you decide how hot, cold, wet, or windy it might be!

Date:

Astronomy

Oct. 24, 2013 Rise Set
Actual Time 7:27 AM MDT 6:15 PM MDT
Civil Twilight 7:00 AM MDT 6:42 PM MDT
Nautical Twilight 6:28 AM MDT 7:14 PM MDT
Astronomical Twilight 5:57 AM MDT 7:45 PM MDT
Moon 10:42 PM MDT (10/24) 12:30 PM MDT (10/24)
Length of Visible Light 11h 42m
Length of Day
10h 47m
Waning Gibbous, 70% of the Moon is Illuminated
Oct 24
Waning Gibbous
Oct 26
Last Quarter
Nov 3
New
Nov 9
First Quarter
Nov 17
Full

Hourly Weather History & Observations

Time (MDT) Temp. Windchill Dew Point Humidity Pressure Visibility Wind Dir Wind Speed Gust Speed Precip Events Conditions
12:15 AM 33.8 °F - 23.0 °F 65% 30.30 in 10.0 mi Calm Calm - N/A   Clear
12:55 AM 32.0 °F 27.5 °F 24.8 °F 75% 30.31 in 10.0 mi ESE 4.6 mph - N/A   Clear
1:15 AM 32.0 °F 26.4 °F 24.8 °F 75% 30.31 in 10.0 mi East 5.8 mph - N/A   Clear
1:35 AM 32.0 °F 28.7 °F 24.8 °F 75% 30.31 in 10.0 mi East 3.5 mph - N/A   Clear
1:55 AM 30.2 °F - 24.8 °F 80% 30.32 in 10.0 mi Calm Calm - N/A   Clear
2:15 AM 30.2 °F - 24.8 °F 80% 30.32 in 10.0 mi Calm Calm - N/A   Clear
2:35 AM 30.2 °F - 24.8 °F 80% 30.32 in 10.0 mi Calm Calm - N/A   Clear
2:55 AM 30.2 °F 26.7 °F 24.8 °F 80% 30.32 in 10.0 mi ESE 3.5 mph - N/A   Clear
3:15 AM 28.4 °F 24.6 °F 24.8 °F 86% 30.32 in 10.0 mi East 3.5 mph - N/A   Clear
3:35 AM 28.4 °F 24.6 °F 24.8 °F 86% 30.32 in 10.0 mi ESE 3.5 mph - N/A   Clear
3:55 AM 28.4 °F - 24.8 °F 86% 30.32 in 10.0 mi Calm Calm - N/A   Clear
4:35 AM 28.4 °F - 24.8 °F 86% 30.32 in 10.0 mi Calm Calm - N/A   Clear
4:55 AM 28.4 °F - 23.0 °F 80% 30.33 in 10.0 mi Calm Calm - N/A   Clear
5:15 AM 26.6 °F - 21.2 °F 80% 30.33 in 10.0 mi Calm Calm - N/A   Clear
5:35 AM 26.6 °F - 23.0 °F 86% 30.34 in 10.0 mi Calm Calm - N/A   Clear
5:55 AM 26.6 °F - 23.0 °F 86% 30.34 in 10.0 mi Calm Calm - N/A   Clear
6:15 AM 26.6 °F 21.2 °F 23.0 °F 86% 30.34 in 10.0 mi East 4.6 mph - N/A   Clear
6:35 AM 26.6 °F 22.6 °F 23.0 °F 86% 30.35 in 10.0 mi ESE 3.5 mph - N/A   Clear
6:50 AM 24.8 °F 19.1 °F 23.0 °F 93% 30.35 in 10.0 mi Variable 4.6 mph - N/A   Partly Cloudy
7:55 AM 24.8 °F - 23.0 °F 93% 30.36 in 10.0 mi Calm Calm - N/A   Scattered Clouds
8:50 AM 30.2 °F - 24.8 °F 80% 30.37 in 10.0 mi Calm Calm - N/A   Scattered Clouds
9:50 AM 33.8 °F - 24.8 °F 70% 30.37 in 10.0 mi Calm Calm - N/A   Scattered Clouds
10:50 AM 41.0 °F - 26.6 °F 57% 30.35 in 10.0 mi Calm Calm - N/A   Partly Cloudy
11:50 AM 46.4 °F - 24.8 °F 43% 30.33 in 10.0 mi Calm Calm - N/A   Partly Cloudy
12:50 PM 53.6 °F - 21.2 °F 28% 30.29 in 10.0 mi Calm Calm - N/A   Partly Cloudy
1:50 PM 57.2 °F - 24.8 °F 29% 30.24 in 10.0 mi Variable 4.6 mph - N/A   Partly Cloudy
2:50 PM 60.8 °F - 24.8 °F 25% 30.22 in 10.0 mi Calm Calm - N/A   Partly Cloudy
3:50 PM 66.2 °F - 21.2 °F 18% 30.20 in 10.0 mi WSW 3.5 mph - N/A   Partly Cloudy
4:50 PM 64.4 °F - 21.2 °F 19% 30.19 in 10.0 mi West 9.2 mph - N/A   Partly Cloudy
5:50 PM 62.6 °F - 23.0 °F 22% 30.19 in 10.0 mi South 6.9 mph - N/A   Partly Cloudy
6:50 PM 57.2 °F - 24.8 °F 29% 30.21 in 10.0 mi NW 3.5 mph - N/A   Partly Cloudy
6:55 PM 55.4 °F - 26.6 °F 33% 30.21 in 10.0 mi Calm Calm - N/A   Clear
7:15 PM 53.6 °F - 24.8 °F 33% 30.22 in 10.0 mi ENE 5.8 mph - N/A   Clear
7:35 PM 50.0 °F - 26.6 °F 40% 30.23 in 10.0 mi Calm Calm - N/A   Clear
7:55 PM 50.0 °F - 24.8 °F 37% 30.24 in 10.0 mi ENE 5.8 mph - N/A   Clear
8:15 PM 46.4 °F 42.4 °F 26.6 °F 46% 30.24 in 10.0 mi East 8.1 mph - N/A   Clear
8:35 PM 44.6 °F 41.4 °F 26.6 °F 49% 30.25 in 10.0 mi ESE 5.8 mph - N/A   Clear
8:55 PM 42.8 °F 40.1 °F 26.6 °F 53% 30.26 in 10.0 mi SE 4.6 mph - N/A   Clear
9:15 PM 42.8 °F 39.3 °F 26.6 °F 53% 30.26 in 10.0 mi East 5.8 mph - N/A   Clear
9:35 PM 41.0 °F 36.4 °F 26.6 °F 57% 30.27 in 10.0 mi East 6.9 mph - N/A   Clear
9:55 PM 39.2 °F 35.0 °F 26.6 °F 61% 30.27 in 10.0 mi ESE 5.8 mph - N/A   Clear
10:35 PM 39.2 °F 37.0 °F 24.8 °F 56% 30.28 in 10.0 mi SE 3.5 mph - N/A   Clear
10:55 PM 37.4 °F 34.9 °F 24.8 °F 60% 30.29 in 10.0 mi SE 3.5 mph - N/A   Clear
11:15 PM 37.4 °F - 24.8 °F 60% 30.30 in 10.0 mi Calm Calm - N/A   Clear
11:35 PM 35.6 °F 31.7 °F 24.8 °F 65% 30.30 in 10.0 mi ESE 4.6 mph - N/A   Clear
11:55 PM 35.6 °F 32.8 °F 24.8 °F 65% 30.30 in 10.0 mi East 3.5 mph - N/A   Clear